Kremmling, CO

12:57 PM MDT on May 29, 2017 (GMT -0600)
Kremmling

Weather History for K20V - January, 2013

Change the Weather History Date:

Thursday, January 17, 2013

  Actual Average Record
Temperature  
Mean Temperature -6 °F -  
Max Temperature 8 °F - 41 °F (2011)
Min Temperature -20 °F - -27 °F (2007)
Degree Days  
Heating Degree Days 71    
Month to date heating degree days  
Cooling Degree Days 0    
Month to date cooling degree days  
Moisture  
Dew Point -15 °F    
Average Humidity 73    
Maximum Humidity 85    
Minimum Humidity 57    
Precipitation  
Precipitation 0.00 in - 0.03 in (2011)
Sea Level Pressure  
Sea Level Pressure 30.54 in    
Wind  
Wind Speed 0 mph (North)    
Max Wind Speed 0 mph    
Max Gust Speed -    
T = Trace of Precipitation, MM = Missing Value Source: NWS Daily Summary

Daily Weather History Graph

Daily Weather History Graph

Search for Another Location

Airport or City:

Trip Planner

Search our weather history database for the weather conditions in past years. The results will help you decide how hot, cold, wet, or windy it might be!

Date:

Astronomy

Jan. 17, 2013 Rise Set
Actual Time 7:24 AM MST 5:07 PM MST
Civil Twilight 6:54 AM MST 5:36 PM MST
Nautical Twilight 6:21 AM MST 6:10 PM MST
Astronomical Twilight 5:49 AM MST 6:42 PM MST
Moon 10:32 AM MST (1/17) No Moon Set
Length of Visible Light 10h 41m
Length of Day
9h 42m
Waxing Crescent, 38% of the Moon is Illuminated
Jan 17
Waxing Crescent
Jan 18
First Quarter
Jan 26
Full
Feb 3
Last Quarter
Feb 10
New

Hourly Weather History & Observations

Time (MST) Temp. Dew Point Humidity Pressure Visibility Wind Dir Wind Speed Gust Speed Precip Events Conditions
12:16 AM -9.4 °F -16.6 °F 71% 30.53 in - Calm Calm - N/A   Clear
12:36 AM -13.0 °F -18.4 °F 77% 30.53 in - Calm Calm - N/A   Clear
12:55 AM -13.0 °F -18.4 °F 77% 30.54 in - Calm Calm - N/A   Clear
1:36 AM -13.0 °F -18.4 °F 77% 30.54 in - Calm Calm - N/A   Clear
1:56 AM -13.0 °F -18.4 °F 77% 30.55 in - Calm Calm - N/A   Scattered Clouds
2:36 AM -14.8 °F -22.0 °F 70% 30.56 in - Calm Calm - N/A   Scattered Clouds
2:56 AM -14.8 °F -22.0 °F 70% 30.56 in - Calm Calm - N/A   Clear
3:16 AM -14.8 °F -22.0 °F 70% 30.56 in - Calm Calm - N/A   Clear
3:36 AM -14.8 °F -22.0 °F 70% 30.56 in - Calm Calm - N/A   Clear
3:56 AM -16.6 °F -23.8 °F 70% 30.57 in - Calm Calm - N/A   Clear
4:16 AM -16.6 °F -23.8 °F 70% 30.56 in - Calm Calm - N/A   Clear
4:35 AM -16.6 °F -23.8 °F 70% 30.56 in - Calm Calm - N/A   Clear
5:16 AM -16.6 °F -23.8 °F 70% 30.57 in - Calm Calm - N/A   Scattered Clouds
5:36 AM -16.6 °F -23.8 °F 70% 30.57 in - Calm Calm - N/A   Scattered Clouds
5:56 AM -18.4 °F -25.6 °F 70% 30.57 in - Calm Calm - N/A   Clear
6:16 AM -18.4 °F -25.6 °F 70% 30.57 in - Calm Calm - N/A   Clear
6:36 AM -18.4 °F -25.6 °F 70% 30.57 in - Calm Calm - N/A   Clear
6:56 AM -18.4 °F -25.6 °F 70% 30.58 in - Calm Calm - N/A   Clear
7:16 AM -20.2 °F -27.4 °F 69% 30.59 in - Calm Calm - N/A   Mostly Cloudy
7:35 AM -18.4 °F -27.4 °F 63% 30.59 in - Calm Calm - N/A   Overcast
7:55 AM -18.4 °F -25.6 °F 70% 30.60 in - Calm Calm - N/A   Overcast
8:15 AM -16.6 °F -23.8 °F 70% 30.61 in - Calm Calm - N/A   Overcast
8:35 AM -16.6 °F -23.8 °F 70% 30.61 in - Calm Calm - N/A   Overcast
8:56 AM -14.8 °F -20.2 °F 77% 30.61 in - Calm Calm - N/A   Overcast
9:16 AM -13.0 °F -18.4 °F 77% 30.62 in - Calm Calm - N/A   Overcast
9:36 AM -7.6 °F -13.0 °F 77% 30.62 in - Calm Calm - N/A   Overcast
9:55 AM -7.6 °F -13.0 °F 77% 30.62 in - Calm Calm - N/A   Overcast
10:16 AM -5.8 °F -13.0 °F 71% 30.62 in - Calm Calm - N/A Snow Light Snow
10:36 AM -4.0 °F -9.4 °F 78% 30.61 in - Calm Calm - N/A   Overcast
10:56 AM -4.0 °F -9.4 °F 78% 30.60 in - Calm Calm - N/A   Overcast
11:16 AM -0.4 °F -5.8 °F 78% 30.59 in - Calm Calm - N/A Snow Light Snow
11:36 AM -0.4 °F -5.8 °F 78% 30.57 in - Calm Calm - N/A Snow Snow
11:56 AM 1.4 °F -4.0 °F 78% 30.56 in - Calm Calm - N/A Snow Light Snow
12:16 PM 1.4 °F -5.8 °F 72% 30.54 in - Calm Calm - N/A Snow Light Snow
12:36 PM 3.2 °F -5.8 °F 66% 30.53 in - Calm Calm - N/A   Clear
12:56 PM 3.2 °F -5.8 °F 66% 30.52 in - Calm Calm - N/A   Clear
1:16 PM 3.2 °F -5.8 °F 66% 30.51 in - Calm Calm - N/A Snow Light Snow
1:36 PM 3.2 °F -5.8 °F 66% 30.51 in - Calm Calm - N/A   Clear
1:55 PM 3.2 °F -5.8 °F 66% 30.49 in - Calm Calm - N/A   Clear
2:16 PM 8.6 °F -4.0 °F 57% 30.49 in - Calm Calm - N/A   Clear
2:36 PM 6.8 °F -4.0 °F 61% 30.48 in - Calm Calm - N/A   Clear
2:55 PM 6.8 °F -4.0 °F 61% 30.49 in - Calm Calm - N/A   Clear
3:16 PM 5.0 °F -4.0 °F 66% 30.48 in - Calm Calm - N/A   Clear
3:36 PM 5.0 °F -4.0 °F 66% 30.48 in - Calm Calm - N/A   Clear
3:56 PM 6.8 °F -4.0 °F 61% 30.48 in - Calm Calm - N/A   Clear
4:16 PM 3.2 °F -5.8 °F 66% 30.48 in - Calm Calm - N/A   Clear
4:36 PM 3.2 °F -5.8 °F 66% 30.48 in - Calm Calm - N/A   Clear
4:56 PM 3.2 °F -4.0 °F 72% 30.48 in - Calm Calm - N/A   Clear
5:16 PM 1.4 °F -5.8 °F 72% 30.48 in - Calm Calm - N/A   Clear
5:36 PM -2.2 °F -7.6 °F 78% 30.48 in - Calm Calm - N/A   Clear
5:55 PM -4.0 °F -7.6 °F 85% 30.48 in - Calm Calm - N/A   Clear
6:15 PM -5.8 °F -9.4 °F 84% 30.48 in - Calm Calm - N/A   Clear
6:36 PM -5.8 °F -9.4 °F 84% 30.49 in - Calm Calm - N/A   Clear
6:56 PM -5.8 °F -9.4 °F 84% 30.49 in - Calm Calm - N/A   Clear
7:16 PM -5.8 °F -9.4 °F 84% 30.49 in - Calm Calm - N/A   Clear
7:56 PM -7.6 °F -13.0 °F 77% 30.51 in - Calm Calm - N/A   Clear
8:16 PM -9.4 °F -14.8 °F 77% 30.51 in - Calm Calm - N/A   Clear
8:36 PM -9.4 °F -14.8 °F 77% 30.50 in - Calm Calm - N/A   Clear
8:56 PM -9.4 °F -14.8 °F 77% 30.51 in - Calm Calm - N/A   Clear
9:16 PM -9.4 °F -14.8 °F 77% 30.51 in - Calm Calm - N/A   Clear
9:36 PM -9.4 °F -14.8 °F 77% 30.51 in - Calm Calm - N/A   Clear
9:56 PM -13.0 °F -18.4 °F 77% 30.51 in - Calm Calm - N/A   Clear
10:16 PM -13.0 °F -16.6 °F 84% 30.51 in - Calm Calm - N/A   Clear
10:36 PM -13.0 °F -18.4 °F 77% 30.51 in - Calm Calm - N/A   Clear
10:55 PM -14.8 °F -20.2 °F 77% 30.51 in - Calm Calm - N/A   Clear
11:16 PM -14.8 °F -22.0 °F 70% 30.50 in - Calm Calm - N/A   Clear
11:35 PM -14.8 °F -20.2 °F 77% 30.50 in - Calm Calm - N/A   Clear
11:56 PM -16.6 °F -22.0 °F 76% 30.49 in - Calm Calm - N/A   Clear